◎P/1819 W1と2003 WY25との連結軌道です



  すでに,IAUC8485でこの同定が指摘されているとおり,2つの天体を結ぶ

連結軌道は,次のとおりとなります.なお,1819年の軌道からの観測の残差

は,およそ,0゚.15で,その近日点通過に儺= +0.4日〜-0.6日ほどの補正を

加えると,残差は,ほぼ0"とできます.しかし,1919/1920年の観測の残差は,

これ以上は,小さくはならなかった.

  この間,彗星は,木星まで,1852年11月に0.62AU,1900年5月に0.60AU,

1912年10月に0.63AU,1960年4月に0.64AU,1995年7月に0.24AUまで接近し

ています.また,地球には,1866年11月に0.080AU,1919年12月に0.049AU,

2003年12月に0.025AUまで接近しました.



    P/1819 W1 (Blanpain) = 2003 WY25

Epoch 2003 Dec. 27.0 TT = JDT 2453000.5  

T 2003 Dec. 11.57756 TT                                 Nakano

q   1.0000686            (2000.0)            P               Q

n   0.18210308     Peri.    9.06944     +0.20097502     -0.97481352

a   3.0826521      Node    69.38274     +0.89216084     +0.14138382

e   0.6755818      Incl.    5.92918     +0.40454675     +0.17247961

P   5.41



Epoch 1819 Nov. 22.0 TT = JDT 2385760.5  

T 1819 Nov. 20.23837 TT                                 Nakano

q   0.8908081            (2000.0)            P               Q

n   0.19031103     Peri.  349.73485     +0.34482321     -0.92528921

a   2.9933678      Node    79.95545     +0.87217951     +0.25364355

e   0.7024061      Incl.    9.22850     +0.34698681     +0.28196601

P   5.18

From 292 observations 1819-2004, weighting mean residual 0".70.



IAUC8485にあるほうおう座流星群が出現した1956年時の軌道は,次のとおり

となる.



Epoch 1956 Oct. 14.0 TT = JDT 2435760.5  

T 1956 Oct. 25.47353 TT                                 Nakano

q   0.9915160            (2000.0)            P               Q

n   0.18349895     Peri.    0.13367     +0.26715020     -0.95018823

a   3.0669992      Node    74.37345     +0.88398132     +0.17530864

e   0.6767146      Incl.    9.59610     +0.38367668     +0.25769983

P   5.37

Residuals in seconds of arc 

1819/       。     。       031206 176  0.2-  0.3-    031216 A30 (2.3-  2.4+) 

191214 500 0.20+ 0.13-    031207 379  0.0   1.6+    031216 A30 (2.8-  3.5+) 

191216 500 0.19+ 0.12-    031207 379  0.6+  0.6+    031216 A30 (1.6-  3.1+) 

191218 500 0.18+ 0.11-    031207 347  0.8+  0.7+    031216 A30 (3.1-  1.8+) 

191220 500 0.18+ 0.11-    031207 347  0.0   0.1+    031216 A30 (3.0-  2.3+) 

191222 500 0.17+ 0.10-    031207 347  0.4+  0.2+    031216 A30  2.0-  1.3+  

191224 500 0.16+ 0.10-    031207 347  0.1-  0.6+    031217 H41  0.2+  0.4+  

191226 500 0.16+ 0.09-    031207 198  0.4-  0.2-    031217 H41  0.2-  0.3+  

191228 500 0.16+ 0.09-    031207 198  0.2-  0.7+    031217 H41  0.8-  0.6+  

191230 500 0.15+ 0.09-    031207 198  0.1-  0.5+    031217 H41  0.3-  0.8+  

1820/                     031207 198  0.3-  0.6+    031217 H41  0.7-  0.7+  

200101 500 0.15+ 0.09-    031207 198  0.3-  0.0     031217 H41  0.3-  0.5+  

200103 500 0.15+ 0.09-    031207 198  0.3-  0.5+    031217 H41  0.1-  0.5+  

200105 500 0.14+ 0.09-    031207 952  0.4-  0.1+    031217 H41  0.9+  0.4+  

200107 500 0.14+ 0.10-    031207 952  0.2-  0.3+    031217 H41  0.2-  0.6+  

200109 500 0.14+ 0.10-    031207 952  0.0   0.2+    031217 H41  0.5-  0.4+  

200111 500 0.14+ 0.10-    031207 952  0.0   0.0     031217 H41  0.2-  0.4+  

200113 500 0.14+ 0.10-    031207 952  0.1-  0.2+    031217 H41  0.1-  0.2+  

200115 500 0.14+ 0.11-    031207 952  0.3-  0.3+    031217 H41  0.5-  0.6+  

2003/        "     "      031207 952  0.2-  0.4+    031217 379  1.2-  0.3-  

031025 699  0.7+  0.0     031207 952  0.8-  0.0     031217 379  0.1-  0.2+  

031025 699  0.2-  0.8+    031207 A30 (1.4-  2.2-)   031217 J84  1.5+  0.9-  

031025 699  0.3+  1.5+    031207 A30 (1.9-  6.1-)   031217 J84  1.6+  1.0-  

031025 699  1.8+  0.8-    031207 A30 (1.2-  5.0-)   031217 J84  1.8+  1.0-  

031122 703  0.3+  0.9+    031207 A30 (0.7-  5.6-)   031217 J84  1.7+  1.0-  

031122 703  0.5+  0.4+    031207 A30 (0.3+  4.4-)   031217 J84  1.7+  1.0-  

031122 703  0.3+  0.7+    031207 941  0.1+  0.2+    031217 J84  1.6+  1.0-  

031122 703  1.5-  0.2+    031207 941  1.1+  0.0     031218 J84  1.7+  1.0-  

031122 703  1.9-  0.9+    031207 941  0.2+  0.1+    031218 J84  1.6+  1.1-  

031122 246  0.0   0.7+    031207 941  0.4+  0.0     031218 J84  1.7+  1.2-  

031122 246  0.3-  0.8+    031208 649  0.4-  0.0     031218 J84  1.7+  1.1-  

031122 246  0.0   0.3+    031208 649  0.3+  0.7-    031218 J84  1.6+  0.9-  

031122 246  0.4-  1.0+    031208 649  0.0   0.4-    031218 J84  1.6+  0.9-  

031122 246  0.9-  0.7+    031208 649  0.1+  0.3-    031218 J84  1.6+  1.3-  

031122 246  0.9-  0.3+    031208 355  0.3+  0.5-    031218 J84  1.3+  1.3-  

031122 620  0.4+  0.5-    031208 355  0.4-  0.5-    031218 379  0.0   0.6+  

031122 620  0.3+  0.4-    031208 355  0.7+  0.6-    031218 379 (2.3-  1.0+) 

031122 620  0.7+  0.4+    031208 127  0.1-  0.0     031218 379  1.0-  1.2-  

031122 859  0.3+  0.5+    031208 127  0.4+  0.8+    031220 H41  0.2+  0.5-  

031123 859  1.0+  0.5+    031208 127  0.0   0.3+    031220 H41  0.5+  0.3+  

031123 859  0.4+  0.2+    031208 084  0.1+  0.0     031220 H41  0.1+  0.4+  

031123 670  1.2+  0.5+    031208 A35  0.0   0.6-    031220 H41  0.3+  0.2-  

031123 670  0.4+  2.0+    031208 A35  0.1+  0.0     031220 H41  0.3+  0.3+  

031123 670  0.1-  0.1+    031208 A35  0.2+  0.0     031220 H41  0.3+  0.3+  

031123 246  0.3-  0.2+    031208 A17  0.5-  0.3+    031220 H41  0.4+  0.1-  

031123 246  0.4-  0.6+    031208 A17  0.8+  0.6+    031220 H41  0.0   0.5+  

031123 246  0.5-  0.3+    031208 A17  0.2+  0.9+    031220 379  0.2-  2.0-  

031123 246  0.6-  0.5+    031208 A17  0.6+  1.1+    031220 379  0.6-  0.0   

031123 246  0.0   0.3+    031208 A17  1.2+  0.4+    031220 379  0.9+  1.3-  

031123 246  0.3-  0.8+    031208 A17  0.4+  1.1+    031220 379  0.2-  0.2-  

031124 176  0.8+  0.4+    031209 084  0.4+  0.0     031224 H41  0.4+  0.1-  

031124 176  0.6+  0.3+    031209 185  0.3+  0.1-    031224 H41  0.9+  0.1+  

031124 176  0.4+  0.2+    031209 185  0.0   0.6-    031224 H41  1.2-  0.5+  

031124 176  0.3+  0.2+    031209 185  0.3+  0.4-    031224 H41  1.8+  0.9-  

031124 176  0.3+  0.0     031209 185  0.3+  0.5-    031224 H41  1.9-  1.6+  

031125 938  0.5+  0.3-    031209 185  0.4+  0.6-    031224 H41 (1.7+  2.2-) 

031125 938  0.6+  0.7+    031209 185  0.3+  0.5-    031224 H41  1.0+  0.1+  

031126 704  0.2+  0.7+    031209 185  0.2+  0.0     031224 H41  0.7+  0.9+  

031126 704  0.1+  0.8+    031209 127  0.4+  0.5+    031226 H41  0.4+  0.0   

031126 704 (4.4+  0.3-)   031209 127  0.1-  0.0     031226 H41  0.1-  0.0   

031126 704 (4.6+  0.5+)   031209 127  0.1-  0.2-    031226 H41  0.3-  0.5+  

031126 704 (4.8+  0.4+)   031209 127  0.0   0.2+    031226 H41  0.0   0.1-  

031126 428  0.3-  0.0     031209 127  0.4+  0.4+    031231 H41  1.2-  0.7+  

031126 428  0.5+  0.3+    031209 127  0.0   0.2-    031231 H41  0.3-  0.0   

031126 428  0.5+  0.3-    031210 379  0.3+  1.3+    031231 H41  1.1-  1.7-  

031126 H72  1.6+  0.1+    031210 379  0.3+  1.7+    031231 H41  0.3+  0.2+  

031126 H72  0.8-  0.3+    031210 127  0.4+  0.0     2004/                   

031127 H72  0.7+  1.3-    031210 127  0.7+  0.1+    040104 704  0.4+  0.5+  

031127 H72  0.8-  0.2-    031210 127  0.2+  0.2-    040104 704  0.2-  0.9+  

031127 H72  0.4+  1.5-    031210 127  0.2+  0.3-    040104 704  0.8-  0.8+  

031127 H72  0.7+  0.7+    031210 127  0.4-  1.5-    040104 704  0.3+  0.3+  

031127 H72  0.8-  0.7-    031210 127  0.0   0.7-    040110 130  0.1-  0.5+  

031127 H72  0.8+  0.6-    031210 127  0.1-  0.7-    040110 130  0.4-  0.4-  

031127 H72  0.7-  0.2+    031210 458  0.1-  1.0-    040111 644  0.1+  0.1+  

031127 H72  0.6-  0.3+    031210 458  0.1-  0.7-    040111 644  0.1+  0.3-  

031128 E14  0.1-  1.0-    031210 458 (1.1+  3.8+)   040111 644  0.1+  0.1+  

031128 E14  0.4-  0.5-    031210 458  0.3-  0.2+    040119 704  0.4+  0.3+  

031128 E14  0.4+  0.1+    031212 H72  0.4-  0.1+    040119 704  0.8-  0.0   

031128 176  0.2-  0.5+    031212 H72  0.1+  0.9-    040119 704  0.1-  0.4+  

031128 176  0.1-  0.4+    031212 H72  0.2+  0.1-    040119 704  0.4-  0.0   

031128 176  0.1+  0.2+    031212 H72  0.1-  0.3+    040119 704  0.3+  1.0+  

031128 176  0.2+  0.1+    031212 H72  0.5+  0.0     040130 703  0.9-  0.5-  

031128 176  0.4+  0.1-    031212 H72  0.0   0.8-    040130 703  0.6-  0.9+  

031130 H72  1.7-  2.0-    031212 H72  1.2-  1.0-    040130 703  0.8-  0.6-  

031130 H72  0.2-  1.5-    031212 H72  1.0+  1.1-    040130 703  0.8-  0.4+  

031130 H72  0.1-  0.6-    031213 355  0.0   0.1-    040131 704  0.7-  0.3+  

031130 H72  1.6-  0.7-    031213 355  0.4-  0.4+    040131 704  0.7-  0.2+  

031130 H72  0.2-  1.6-    031213 355  0.2-  0.5-    040131 704  1.5-  0.0   

031130 H72  0.4+  1.4-    031213 355  0.2+  0.1-    040131 704  0.7-  0.8+  

031130 H72  0.1-  1.0-    031213 355  0.2-  0.4+    040131 704  0.3-  0.4+  

031130 H72  0.8-  0.2+    031214 355  0.3-  0.5+    040202 704  0.3+  1.1+  

031205 620  0.1+  0.1-    031214 355  0.3-  0.1-    040202 704  0.9+  1.2+  

031205 620  0.2-  0.4-    031214 355  0.3-  0.0     040202 704  0.1+  0.0   

031205 620  0.2+  0.6-    031214 355  0.5-  0.3+    040202 704  0.3+  0.2+  

031206 E14  0.6+  0.6+    031214 355  0.2-  0.4-    040210 644  0.1+  0.1-  

031206 E14  0.9+  0.7+    031214 300  1.8-  0.8+    040210 644  0.2+  0.3+  

031206 E14  0.2-  0.4+    031214 300  0.7+  0.8+    040210 644  0.2+  0.2-  

031206 170  0.2+  0.1+    031214 300  1.5-  1.8+    040214 704  0.2-  0.6-  

031206 170  0.2+  0.0     031214 300 (2.6-  1.2-)   040214 704  1.0-  0.9+  

031206 170  0.0   0.1-    031214 300  0.1-  1.2+    040214 704  0.3+  0.7+  

031206 170  0.0   0.2-    031214 300  1.3-  1.3-    040214 704  0.6-  0.3-  

031206 170  0.0   0.2-    031216 A30 (2.5-  5.8+)   040214 704  0.5-  0.1-  

031206 176  0.2+  0.3-    031216 A30 (0.6-  3.9+)   040320 291  0.2-  0.0   

031206 176  0.2+  0.3-    031216 A30  1.9-  0.9+    040320 291  0.2+  0.3-  

031206 176  0.1+  0.3-    031216 A30 (2.4-  2.2+)   040320 291  0.6+  0.1-  

031206 176  0.0   0.3-    031216 A30 (2.6-  4.2+)                           



NAKANO

         **** Don't distribute anyone except personal use only ****

                (C) Copyright 2005 OAA/ComputingSection

write mail from CFAD0::NAKANO on 2005-02-14 05:57:06(JST).

 



戻ります。